Regional Weather Roundup
Issued by NWS Charleston, SC

Home | Current Version | Previous Version | Text Only | Print | Product List | Glossary On
Versions: 1 2 3 4 5 6 7 8 9 10 11 12 13 14 15 16 17 18 19 20 21 22 23 24 25 26 27 28 29 30 31 32 33 34 35 36 37 38 39 40 41 42 43 44 45 46 47 48 49 50
000
ASUS42 KCHS 050827
RWRCHS

REGIONAL WEATHER ROUNDUP
NATIONAL WEATHER SERVICE CHARLESTON SC
300 AM EST MON DEC 05 2016

NOTE: "FAIR" INDICATES FEW OR NO CLOUDS BELOW 12,000 FEET WITH NO
SIGNIFICANT WEATHER AND/OR OBSTRUCTIONS TO VISIBILITY.

NOT ALL STATIONS ARE QUALITY CONTROLLED. USE DATA WITH CAUTION...
ESPECIALLY DEWPOINT OBSERVATIONS.

SCZ027-030-031-034>040-042>050-050900-
...SOUTHEAST SOUTH CAROLINA...

CITY           SKY/WX    TMP DP  RH WIND       PRES   REMARKS
N CHARLESTON   LGT RAIN  64  61  90 W6        29.96S
WATERFRONT PRK   N/A     68  66  93 SW8       29.95F
MOUNT PLEASANT CLOUDY    70  66  88 S12       29.96S FOG
JOHNS ISLAND   DRIZZLE   68  66  94 SW12G20   29.97S
PINOPOLIS        N/A     52  52 100 NW7       29.89
MONCKS CORNER  LGT RAIN  50  50 100 CALM      29.98S
SUMMERVILLE    DRIZZLE   52  52 100 NW3       30.00R
BEAUFORT MCAS  LGT RAIN  68  64  87 S8G17     29.97S
BEAUFORT ARPT  LGT RAIN  68  64  88 SW10G23   29.97S
HILTON HEAD IS CLOUDY    68  66  94 S14G22    29.98S
WALTERBORO     CLOUDY    52 N/A N/A CALM      30.00R
ALLENDALE      LGT RAIN  48  48 100 VRB3      29.99S

...SOUTHERN MIDLANDS AND PEE DEE...

CITY           SKY/WX    TMP DP  RH WIND       PRES   REMARKS
GEORGETOWN     DRIZZLE   66  64  94 SW10G20   29.96S
KINGSTREE      RAIN      46  45  93 NW7       29.99S
ORANGEBURG     LGT RAIN  46  45  96 N3        30.00S
BARNWELL       NOT AVBL
AIKEN          LGT RAIN  43  43 100 CALM      30.02F
MANNING        NOT AVBL
COLUMBIA       LGT RAIN  46  43  89 CALM      30.00F
SUMTER         LGT RAIN  45  43  93 N6        29.96F
FLORENCE       RAIN      46  45  96 NW8       30.00S FOG
MYRTLE BEACH   CLOUDY    66  63  88 S13G18    29.95F
N MYRTLE BEACH LGT RAIN  64  62  93 S13       29.93F

$$

GAZ063-065-086>088-099>101-113>116-118-119-134>141-150-050900-
...SOUTHEAST GEORGIA...

CITY           SKY/WX    TMP DP  RH WIND       PRES   REMARKS
SAVANNAH ARPT  CLOUDY    68  63  84 S7        29.97F
HUNTER AAF     DRIZZLE   70  68  94 S7        29.94F
FORT STEWART   LGT RAIN  68  63  83 CALM      29.96R
STATESBORO     CLOUDY    53  53 100 N5        30.00R
SYLVANIA       CLOUDY   N/A N/A N/A N7        30.01R FOG
CLAXTON        PTSUNNY  N/A N/A N/A CALM      29.99S

...CSRA...CENTRAL AND FAR SOUTHEAST GEORGIA...

CITY           SKY/WX    TMP DP  RH WIND       PRES   REMARKS
THOMSON        CLOUDY    46  46 100 E3        30.00F
AUGUSTA-BUSH   CLOUDY    48  45  89 N5        30.01F
AUGUSTA-DANIEL LGT RAIN  46  43  89 N5        30.00F
SWAINSBORO     CLOUDY    48  46  93 CALM      30.02R
VIDALIA        LGT RAIN  54  54 100 N6        30.00R
EASTMAN        LGT RAIN  51  51  99 E5        30.00F
HAZLEHURST     HVY RAIN  60  60 100 N9        29.97S
ALMA           MOCLDY    64  64 100 CALM      29.97S
WAYCROSS       CLOUDY    68  67  96 S3        29.97S
JESUP          PTSUNNY   68  66  94 CALM      29.99S
BAXLEY         CLOUDY    63  63 100 CALM      29.98R FOG
BRUNSWICK      CLOUDY    70  66  88 S10G18    29.99S
SAINT SIMONS   MOCLDY    69  63  81 S7        29.99F

$$

SCZ027-028-034-036>038-045-046-048>050-GAZ119-141-050900-
...LAKE AND SUPPLEMENTAL COASTAL OBSERVATIONS...

STATION/POSITION TIME  TEMP    WIND        PRES    WAVE   SWELL
                       AIR SEA DIR/SP/G            HT/PER HT/PER/DIR
                 (UTC) (F)     (DEG/KT/KT) (MB)    (FT/S) (FT/S/D)
WINYAH BAY       0730   67     220/  8     1014.0S
LAKE MURRAY      0750   44      CALM  /  3 1015.2F
ACE BASIN NERRS  0745   68     200/  2     1015.0S
FORT PULASKI     0800   67 61  220/  8/ 12 1015.2
SAPELO ISLAND    0800   67     190/  6     1015.0

$$

ANZ835-935-AMZ111-154-330-350-352-354-370-450-454-472-050900-
...C-MAN AND BUOY OBSERVATIONS...

STATION/POSITION TIME  TEMP    WIND        PRES    WAVE   SWELL
                       AIR SEA DIR/SP/G            HT/PER HT/PER/DIR
                 (UTC) (F)     (DEG/KT/KT) (MB)    (FT/S) (FT/S/D)
BUOY 41004       0750   74 74  190/ 23/ 29 1013.8F   7/ 6   2/150/11
BUOY 41008       0750   68 65  190/ 14/ 16 1015.1S   4/ 6   2/ 70/ 8
FOLLY BEACH CMAN 0800   65     220/  9/ 12 1015.2S
CAPERS NEARSHORE 0708   67 62  200/ 12/ 16 1014.3F
FRIPP NEARSHORE  0808   65 62  230/ 10/ 14 1014.6F


STATION/POSITION TIME  TEMP    WIND        PRES    WAVE   SWELL
                       AIR SEA DIR/SP/G            HT/PER HT/PER/DIR
                 (UTC) (F)     (DEG/KT/KT) (MB)    (FT/S) (FT/S/D)
5E ST. MARYS GA  0800      65                N/A     3/ 5
FRYING PAN BUOY  0810   73 74  190/ 25/ 31 1014.3
BUOY 41025       0750   67 74  180/ 21/ 27 1015.4F   4/ 8   3/ 50/ 8
CAPE LOOKOUT NC  0800   63     210/  9/ 11 1014.9F
BUOY 41002       0750   69 73  170/ 16/ 19 1018.7F   4/10   3/ 10/10
BUOY 41010       NOT AVBL
ST AUGUSTINE FL  0800   70 68  190/ 11/ 14 1016.4F


$$



USA.gov is the U.S. government's official web portal to all federal, state and local government web resources and services.